Weather History for Augusta Bush, GA

Change the Weather History Date:

Wednesday, November 21, 2012

  Actual Average Record
Temperature  
Mean Temperature 52 °F 54 °F  
Max Temperature 69 °F 68 °F 82 °F (1942)
Min Temperature 35 °F 40 °F 19 °F (1951)
Degree Days  
Heating Degree Days 13 12  
Month to date heating degree days 255 191  
Since 1 July heating degree days 340 305  
Cooling Degree Days 0 0  
Month to date cooling degree days 0 15  
Year to date cooling degree days 2163 2085  
Growing Degree Days 2 (Base 50)    
Moisture  
Dew Point 38 °F    
Average Humidity 65    
Maximum Humidity 100    
Minimum Humidity 30    
Precipitation  
Precipitation 0.00 in 0.10 in 3.07 in (1877)
Month to date precipitation 0.90 1.90  
Year to date precipitation 31.21 39.26  
Sea Level Pressure  
Sea Level Pressure 30.12 in    
Wind  
Wind Speed 3 mph (North)    
Max Wind Speed 14 mph    
Max Gust Speed 17 mph    
Visibility 8 miles    
Events Fog    
T = Trace of Precipitation, MM = Missing Value Source: NWS Daily Summary

Daily Weather History Graph

Daily Weather History Graph

Search for Another Location

Airport:

Trip Planner

Search our weather history database for the weather conditions in past years. The results will help you decide how hot, cold, wet, or windy it might be!

Date:

Astronomy

Nov. 21, 2012 Rise Set
Actual Time 7:05 AM EST 5:22 PM EST
Civil Twilight 6:38 AM EST 5:49 PM EST
Nautical Twilight 6:08 AM EST 6:19 PM EST
Astronomical Twilight 5:38 AM EST 6:48 PM EST
Moon 1:21 PM EST (11/21) 12:41 AM EST (11/21)
Length of Visible Light 11h 10m
Length of Day
10h 17m
First Quarter, 61% of the Moon is Illuminated
Nov 21
First Quarter
Nov 28
Full
Dec 6
Last Quarter
Dec 13
New
Dec 20
First Quarter

Hourly Weather History & Observations

Time (EST) Temp. Windchill Dew Point Humidity Pressure Visibility Wind Dir Wind Speed Gust Speed Precip Events Conditions
12:53 AM 41.0 °F - 39.9 °F 96% 30.09 in 9.0 mi Calm Calm - N/A   Partly Cloudy
1:53 AM 41.0 °F - 39.0 °F 93% 30.09 in 9.0 mi Calm Calm - N/A   Partly Cloudy
2:45 AM 39.2 °F - 37.4 °F 93% 30.09 in 1.8 mi Calm Calm - N/A   Clear
2:53 AM 37.9 °F - 37.9 °F 100% 30.09 in 0.5 mi Calm Calm - N/A Fog Fog
3:03 AM 39.2 °F - 39.2 °F 100% 30.08 in 0.5 mi Calm Calm - N/A Fog Fog
3:06 AM 39.2 °F - 39.2 °F 100% 30.08 in 1.2 mi Calm Calm - N/A   Partly Cloudy
3:09 AM 39.2 °F - 37.4 °F 93% 30.08 in 4.0 mi Calm Calm - N/A   Partly Cloudy
3:53 AM 39.0 °F - 37.9 °F 96% 30.09 in 9.0 mi Calm Calm - N/A   Clear
4:53 AM 37.9 °F - 36.0 °F 93% 30.09 in 8.0 mi Calm Calm - N/A   Clear
5:26 AM 37.4 °F - 35.6 °F 93% 30.10 in 2.5 mi Calm Calm - N/A   Partly Cloudy
5:39 AM 37.4 °F 34.9 °F 35.6 °F 93% 30.10 in 8.0 mi West 3.5 mph - N/A   Partly Cloudy
5:53 AM 37.0 °F - 35.1 °F 93% 30.10 in 8.0 mi Calm Calm - N/A   Partly Cloudy
6:53 AM 36.0 °F - 35.1 °F 97% 30.12 in 9.0 mi Calm Calm - N/A   Clear
6:59 AM 37.4 °F - 35.6 °F 93% 30.12 in 8.0 mi Calm Calm - N/A   Partly Cloudy
7:53 AM 39.9 °F - 37.9 °F 93% 30.14 in 7.0 mi Calm Calm - N/A   Clear
8:53 AM 46.9 °F - 44.1 °F 90% 30.16 in 7.0 mi North 3.5 mph - N/A   Clear
9:53 AM 53.1 °F - 46.0 °F 77% 30.17 in 7.0 mi NNE 3.5 mph - N/A   Clear
10:53 AM 59.0 °F - 45.0 °F 60% 30.17 in 10.0 mi North 4.6 mph - N/A   Clear
11:53 AM 63.0 °F - 45.0 °F 52% 30.14 in 10.0 mi Variable 5.8 mph - N/A   Clear
12:53 PM 66.9 °F - 39.0 °F 36% 30.11 in 10.0 mi NE 9.2 mph - N/A   Clear
1:53 PM 68.0 °F - 36.0 °F 31% 30.10 in 10.0 mi NNE 11.5 mph - N/A   Clear
2:53 PM 68.0 °F - 35.1 °F 30% 30.09 in 10.0 mi NNE 11.5 mph 17.3 mph N/A   Clear
3:53 PM 68.0 °F - 35.1 °F 30% 30.10 in 10.0 mi NNE 8.1 mph - N/A   Clear
4:53 PM 64.0 °F - 33.1 °F 31% 30.11 in 10.0 mi North 5.8 mph - N/A   Clear
5:53 PM 53.1 °F - 37.9 °F 57% 30.12 in 10.0 mi Calm Calm - N/A   Clear
6:53 PM 46.9 °F - 37.9 °F 71% 30.13 in 10.0 mi Calm Calm - N/A   Clear
7:53 PM 46.0 °F - 37.9 °F 73% 30.14 in 10.0 mi Calm Calm - N/A   Clear
8:53 PM 44.1 °F - 37.0 °F 76% 30.15 in 10.0 mi Calm Calm - N/A   Clear
9:53 PM 42.1 °F - 37.0 °F 82% 30.16 in 10.0 mi Calm Calm - N/A   Clear
10:53 PM 39.9 °F - 37.0 °F 89% 30.17 in 10.0 mi Calm Calm - N/A   Clear
11:53 PM 37.9 °F - 36.0 °F 93% 30.17 in 10.0 mi Calm Calm - N/A   Clear